KT4ATL Weather Reports


time (UTC)temp
C
wind
direction
speed
KPH
gust
KPH
rain 1hr
cm
rain 24hr
cm
rain mn
cm
humidity
%
barometer
mb
20260504110529 7 0.0 0.0 0.00 0.00 0.00 91 1014.4
20260504100530 7 0.0 0.0 0.00 0.00 0.00 92 1014.3
20260504081518 6 0.0 0.0 0.00 0.00 0.00 94 1014.6
20260504080518 6 0.0 0.0 0.00 0.00 0.00 94 1014.6
20260504050518 7 0.0 0.0 0.00 0.00 0.00 88 1015.5
20260504045518 7 0.0 0.0 0.00 0.00 0.00 87 1015.6
20260504044539 7 0.0 0.0 0.00 0.00 0.00 87 1015.5
20260504043519 7 0.0 0.0 0.00 0.00 0.00 86 1015.6
20260504042519 7 0.0 0.0 0.00 0.00 0.00 86 1015.6
20260504041519 7 0.0 0.0 0.00 0.00 0.00 84 1015.6
20260504040519 8 0.0 0.0 0.00 0.00 0.00 84 1015.7
20260504035539 8 0.0 0.0 0.00 0.00 0.00 83 1015.7
20260504034520 8 0.0 0.0 0.00 0.00 0.00 82 1015.7
20260504033517 8 0.0 0.0 0.00 0.00 0.00 81 1015.7
20260504032517 8 0.0 0.0 0.00 0.00 0.00 80 1015.5
20260504031520 8 0.0 0.0 0.00 0.00 0.00 79 1015.6
20260504030517 9 0.0 0.0 0.00 0.00 0.00 79 1015.8
20260504025517 9 0.0 0.0 0.00 0.00 0.00 77 1015.8
20260504024518 10 0.0 0.0 0.00 0.00 0.00 76 1015.7
20260504023518 10 0.0 0.0 0.00 0.00 0.00 74 1015.7
20260504022518 10 0.0 0.0 0.00 0.00 0.00 73 1015.4
20260504021539 10 0.0 0.0 0.00 0.00 0.00 70 1015.3
20260504020518 11 0.0 0.0 0.00 0.00 0.00 68 1015.2
20260504015538 11 0.0 0.0 0.00 0.00 0.00 67 1015.1
20260504014516 11 0.0 0.0 0.00 0.00 0.00 64 1015.0
20260504013519 12 0.0 0.0 0.00 0.00 0.00 61 1014.9
20260504012519 12 0.0 0.0 0.00 0.00 0.00 58 1015.0
20260504011517 13 0.0 0.0 0.00 0.00 0.00 55 1015.0
20260504010519 14 0.0 0.0 0.00 0.00 0.00 53 1015.0
20260504005521 15 0.0 0.0 0.00 0.00 0.00 50 1014.9
20260504004521 16 151 0.0 1.6 0.00 0.00 0.00 47 1014.8
20260504003537 16 0.0 0.0 0.00 0.00 0.00 45 1014.8
20260504002517 17 166 0.0 3.2 0.00 0.00 0.00 43 1014.8
20260504001540 17 0.0 0.0 0.00 0.00 0.00 43 1014.9
20260504000520 18 182 0.0 3.2 0.00 0.00 0.00 40 1015.0
20260503235517 19 228 0.0 4.8 0.00 0.00 0.00 38 1015.1
20260503234518 20 241 0.0 3.2 0.00 0.00 0.00 38 1015.1
20260503233518 21 196 1.6 8.0 0.00 0.00 0.00 36 1015.0
20260503232518 22 224 1.6 4.8 0.00 0.00 0.00 35 1014.9
20260503231518 22 227 1.6 4.8 0.00 0.00 0.00 35 1014.8
20260503230518 23 218 1.6 6.4 0.00 0.00 0.00 35 1014.9
20260503225519 22 217 0.0 4.8 0.00 0.00 0.00 35 1015.0
20260503224519 22 239 0.0 3.2 0.00 0.03 0.00 35 1015.2
20260503223559 22 224 1.6 4.8 0.00 0.03 0.00 36 1015.3
20260503222519 22 216 1.6 4.8 0.00 0.03 0.00 36 1015.5
20260503221519 22 206 1.6 6.4 0.00 0.03 0.00 37 1015.7
20260503220517 22 255 1.6 4.8 0.00 0.03 0.00 37 1015.8
20260503215517 22 246 1.6 6.4 0.00 0.03 0.00 36 1015.7
20260503214517 22 255 1.6 6.4 0.00 0.03 0.00 36 1015.9
20260503213517 22 196 1.6 4.8 0.00 0.03 0.00 37 1016.1
20260503212518 22 220 1.6 6.4 0.00 0.03 0.00 37 1016.2
20260503211517 22 219 1.6 3.2 0.00 0.03 0.00 37 1016.3
20260503210520 22 251 1.6 6.4 0.00 0.03 0.00 37 1016.4
20260503205518 22 210 1.6 4.8 0.00 0.03 0.00 39 1016.6
20260503204518 22 235 1.6 4.8 0.00 0.03 0.00 38 1016.8
20260503203518 21 239 1.6 6.4 0.00 0.03 0.00 37 1017.1
20260503202518 21 189 1.6 4.8 0.00 0.03 0.00 38 1017.3
20260503201518 21 229 1.6 4.8 0.00 0.03 0.00 38 1017.4
20260503200519 21 85 1.6 3.2 0.00 0.03 0.00 38 1017.7
20260503195519 21 226 1.6 4.8 0.00 0.03 0.00 38 1017.8
20260503194539 20 231 1.6 6.4 0.00 0.03 0.00 40 1018.0
20260503193516 20 282 1.6 6.4 0.00 0.03 0.00 40 1018.2
20260503192519 20 192 3.2 6.4 0.00 0.03 0.00 39 1018.3
20260503191520 20 253 1.6 6.4 0.00 0.03 0.00 39 1018.4
20260503190520 20 221 1.6 6.4 0.00 0.03 0.00 40 1018.6
20260503185517 20 259 1.6 6.4 0.00 0.03 0.00 39 1018.8
20260503184517 19 222 1.6 6.4 0.00 0.03 0.00 40 1019.0
20260503183521 19 217 1.6 8.0 0.00 0.03 0.00 38 1019.2
20260503182517 19 225 1.6 9.7 0.00 0.03 0.00 41 1019.2
20260503181518 18 211 1.6 4.8 0.00 0.03 0.00 41 1019.2
20260503180538 18 272 1.6 4.8 0.00 0.03 0.00 41 1019.3
20260503175516 19 14 1.6 6.4 0.00 0.03 0.00 38 1019.5
20260503174516 19 245 1.6 4.8 0.00 0.03 0.00 38 1019.6
20260503173558 18 22 0.0 3.2 0.00 0.03 0.00 40 1019.8
20260503172517 17 221 1.6 4.8 0.00 0.03 0.00 40 1020.0
20260503171518 17 73 1.6 4.8 0.00 0.03 0.00 40 1020.2
20260503170519 17 210 1.6 6.4 0.00 0.03 0.00 43 1020.3
20260503150538 16 58 1.6 4.8 0.00 0.03 0.00 43 1021.7
20260503130517 10 144 0.0 1.6 0.00 0.03 0.00 98 1022.1